Location: Zagreb
(45.8000°N, 16.0000°E)
Time: 15:43:00
(UTC+02:00)

Transit 2A Rocket - Pass Details

Date: 13 August 2022
Orbit: 593 x 907 km, 66.7° (Epoch: 25 September)

Event Time Altitude Azimuth Distance (km) Brightness Sun altitude
Rises 19:58:45 0° 238° (WSW) 2,971 8.7 0.6°
Reaches altitude 10° 20:01:18 10° 248° (WSW) 2,021 8.0 0.2°
Maximum altitude 20:05:21 32° 312° (NW) 1,064 6.8 -0.5°
Drops below altitude 10° 20:09:16 10° 16° (NNE) 1,946 7.2 -1.1°
Sets 20:11:41 0° 27° (NNE) 2,842 7.9 -1.5°
